Meteo Giornale » Osservazioni meteo Italia » Gioia Del Colle

ore: 16:55 - Osservazioni Meteo Gioia Del Colle
Lat. 40° 46' N Lon. 16° 56' E Alt. 345 metri s.l.m.

nuvoloso Europe/Rome

20 °C

Nuvoloso

Temp. 24 Ore

18 °C

27 °C

Ovest

9.3 Km/h

Dew point 19 °C

Umidità 93 %

Visibilità  9 Km

Il sole sorge alle ore 06:02

Il sole tramonta alle ore 19:50

Data e Ora Cielo e Fenomeni T °C DP °C Um. % Pres. hPa Vis. km Vento km/h
Oggi h: 16:55 nuvoloso Nuvoloso 20 19 93 1013 9 O 9.3
Oggi h: 15:55 nuvoloso_temporali Temporale con Pioggia Debole 19 19 100 1015 6 S/SO 14.8
Oggi h: 15:09 nuvoloso_temporali Temporale con Pioggia Foschia 19 18 93 1015 5 S/SE 31.5
Oggi h: 14:55 coperto_temporali Temporale 21 19 88 1014 9 S/SE 38.8
Oggi h: 13:55 nuvoloso Nuvoloso 27 20 65 1014 10 N 24
Oggi h: 12:55 nuvoloso Nuvoloso 26 20 69 1013 10 N 20.3
Oggi h: 11:55 nuvoloso Nuvoloso 26 21 73 1013 10 N 16.7
Oggi h: 10:55 nuvoloso Nuvoloso 25 22 83 1013 10 N 13
Oggi h: 09:55 nuvoloso Nuvoloso 24 22 88 1013 10 N 16.7
Oggi h: 08:55 nuvoloso Nuvoloso 23 22 94 1013 10 N/NO 13
Oggi h: 07:55 poco_nuvoloso Poco Nuvoloso 21 21 100 1013 8 N/NO 9.3
Oggi h: 06:55 poco_nuvoloso Poco Nuvoloso 19 19 100 1012 7 N 5.5
Oggi h: 05:55 foschia Foschia 18 18 100 1012 5 N 3.7
Oggi h: 04:55 nuvoloso Nuvoloso 18 18 100 1012 6 N 3.7
Oggi h: 03:55 sereno Sereno 18 18 100 1013 7 N 0
Oggi h: 02:55 sereno Sereno 18 18 100 1012 7 N 5.5
Oggi h: 01:55 sereno Sereno 19 19 100 1013 7 N 5.5
Oggi h: 00:55 sereno Sereno 19 19 100 1013 7 N 3.7
Ieri h: 23:55 sereno Sereno 19 19 100 1013 7 N 1.8
Ieri h: 21:55 poco_nuvoloso Poco Nuvoloso 20 20 100 1013 7 N 3.7
Ieri h: 20:55 nuvoloso Nuvoloso 20 20 100 1012 6 O/NO 7.4
Ieri h: 19:55 nuvoloso Nuvoloso 21 21 100 1012 6 N/NO 13
Ieri h: 18:55 nuvoloso Nuvoloso 21 21 100 1011 6 N 14.8
Ieri h: 17:55 nuvoloso Nuvoloso 21 21 100 1012 7 N 14.8